• In Uzbekistan
  • List of Countries
  • For 7 days
  • Water Temperature
  • Satellite Maps
  • Weather Map
  • Weather Widgets
  • user-avatar
    Login

    Hourly Weather Mokhotlong

    Today, 21 February, Wednesday

    Time Temperature Precipitation Wind Pressure Humidity
    00:00 +13°C° 0 mm 1 mps 586 mmHg 86%
    01:00 +13°C° 0 mm 1 mps 586 mmHg 86%
    02:00 +13°C° 0 mm 1 mps 586 mmHg 85%
    03:00 +12°C° 0 mm 1 mps 585 mmHg 85%
    04:00 +12°C° 0 mm 1 mps 585 mmHg 85%
    05:00 +11°C° 0 mm 1 mps 585 mmHg 84%
    06:00 +13°C° 0 mm 1 mps 586 mmHg 76%
    07:00 +15°C° 0 mm 1 mps 587 mmHg 67%
    08:00 +17°C° 0 mm 0 mps 589 mmHg 59%
    09:00 +20°C° 0 mm 1 mps 589 mmHg 53%
    10:00 +22°C° 0 mm 1 mps 589 mmHg 48%
    11:00 +23°C° 0 mm 1 mps 590 mmHg 43%
    12:00 +23°C° 0.3 mm 2 mps 590 mmHg 44%
    13:00 +23°C° 0.3 mm 2 mps 589 mmHg 45%
    14:00 +23°C° 0.3 mm 2 mps 589 mmHg 47%
    15:00 +21°C° 1.2 mm 2 mps 588 mmHg 54%
    16:00 +20°C° 1.2 mm 2 mps 588 mmHg 62%
    17:00 +19°C° 1.2 mm 2 mps 587 mmHg 70%
    18:00 +17°C° 1 mm 2 mps 587 mmHg 76%
    19:00 +16°C° 1 mm 2 mps 587 mmHg 82%
    20:00 +14°C° 1 mm 2 mps 586 mmHg 88%
    21:00 +14°C° 0.2 mm 2 mps 586 mmHg 89%
    22:00 +14°C° 0.2 mm 2 mps 587 mmHg 90%
    23:00 +14°C° 0.2 mm 2 mps 587 mmHg 92%

    Tomorrow, 22 February, Thursday

    Time Temperature Precipitation Wind Pressure Humidity
    00:00 +13°C° 0 mm 1 mps 587 mmHg 93%
    01:00 +13°C° 0 mm 1 mps 586 mmHg 93%
    02:00 +13°C° 0 mm 1 mps 586 mmHg 94%
    03:00 +13°C° 0 mm 1 mps 586 mmHg 94%
    04:00 +12°C° 0 mm 1 mps 585 mmHg 94%
    05:00 +12°C° 0 mm 1 mps 585 mmHg 94%
    06:00 +13°C° 0 mm 1 mps 586 mmHg 88%
    07:00 +14°C° 0 mm 1 mps 587 mmHg 82%
    08:00 +16°C° 0 mm 1 mps 587 mmHg 77%
    09:00 +18°C° 0.1 mm 1 mps 588 mmHg 68%
    10:00 +20°C° 0.1 mm 1 mps 588 mmHg 60%
    11:00 +22°C° 0.1 mm 1 mps 589 mmHg 51%
    12:00 +21°C° 0.7 mm 2 mps 588 mmHg 53%
    13:00 +21°C° 0.7 mm 2 mps 588 mmHg 54%
    14:00 +21°C° 0.7 mm 2 mps 587 mmHg 56%
    15:00 +20°C° 1.8 mm 2 mps 587 mmHg 61%
    16:00 +19°C° 1.8 mm 2 mps 586 mmHg 66%
    17:00 +18°C° 1.8 mm 2 mps 585 mmHg 71%
    18:00 +18°C° 1.5 mm 1 mps 585 mmHg 75%
    19:00 +16°C° 1.5 mm 1 mps 585 mmHg 80%
    20:00 +15°C° 1.5 mm 1 mps 585 mmHg 85%
    21:00 +14°C° 0.7 mm 1 mps 585 mmHg 85%
    22:00 +14°C° 0.7 mm 1 mps 585 mmHg 85%
    23:00 +14°C° 0.7 mm 1 mps 585 mmHg 84%

    Day after tomorrow, 23 February, Friday

    Time Temperature Precipitation Wind Pressure Humidity
    00:00 +13°C° 0 mm 1 mps 584 mmHg 85%
    01:00 +13°C° 0 mm 1 mps 584 mmHg 85%
    02:00 +12°C° 0 mm 1 mps 583 mmHg 85%
    03:00 +12°C° 0 mm 1 mps 583 mmHg 84%
    04:00 +12°C° 0 mm 1 mps 583 mmHg 83%
    05:00 +12°C° 0 mm 1 mps 582 mmHg 82%
    06:00 +13°C° 0 mm 1 mps 583 mmHg 76%
    07:00 +15°C° 0 mm 1 mps 584 mmHg 71%
    08:00 +18°C° 0 mm 1 mps 585 mmHg 65%
    09:00 +20°C° 0 mm 1 mps 585 mmHg 59%
    10:00 +21°C° 0 mm 1 mps 586 mmHg 52%
    11:00 +23°C° 0 mm 1 mps 586 mmHg 46%
    12:00 +23°C° 0.7 mm 1 mps 586 mmHg 46%
    13:00 +24°C° 0.7 mm 1 mps 585 mmHg 46%
    14:00 +24°C° 0.7 mm 1 mps 585 mmHg 45%
    15:00 +23°C° 1.2 mm 1 mps 584 mmHg 49%
    16:00 +22°C° 1.2 mm 1 mps 584 mmHg 52%
    17:00 +22°C° 1.2 mm 1 mps 583 mmHg 56%
    18:00 +20°C° 0.7 mm 1 mps 583 mmHg 62%
    19:00 +18°C° 0.7 mm 1 mps 583 mmHg 67%
    20:00 +16°C° 0.7 mm 2 mps 582 mmHg 73%
    21:00 +15°C° 0.1 mm 2 mps 582 mmHg 74%
    22:00 +15°C° 0.1 mm 2 mps 582 mmHg 75%
    23:00 +14°C° 0.1 mm 2 mps 582 mmHg 76%

    24 February, Saturday

    Time Temperature Precipitation Wind Pressure Humidity
    00:00 +14°C° 0 mm 2 mps 582 mmHg 76%
    01:00 +13°C° 0 mm 2 mps 581 mmHg 77%
    02:00 +13°C° 0 mm 2 mps 581 mmHg 77%
    03:00 +13°C° 0 mm 1 mps 581 mmHg 77%
    04:00 +12°C° 0 mm 1 mps 581 mmHg 78%
    05:00 +12°C° 0 mm 1 mps 581 mmHg 78%
    06:00 +14°C° 0 mm 1 mps 582 mmHg 73%
    07:00 +16°C° 0 mm 1 mps 583 mmHg 68%
    08:00 +19°C° 0 mm 1 mps 585 mmHg 63%
    09:00 +20°C° 0.2 mm 1 mps 585 mmHg 59%
    10:00 +21°C° 0.2 mm 1 mps 585 mmHg 55%
    11:00 +23°C° 0.2 mm 2 mps 585 mmHg 52%
    12:00 +23°C° 0.8 mm 2 mps 585 mmHg 53%
    13:00 +23°C° 0.8 mm 2 mps 584 mmHg 55%
    14:00 +21°C° 0.8 mm 2 mps 584 mmHg 56%
    15:00 +21°C° 1.3 mm 2 mps 583 mmHg 59%
    16:00 +20°C° 1.3 mm 2 mps 583 mmHg 62%
    17:00 +20°C° 1.3 mm 2 mps 583 mmHg 65%
    18:00 +18°C° 0.8 mm 2 mps 583 mmHg 71%
    19:00 +16°C° 0.8 mm 1 mps 582 mmHg 77%
    20:00 +15°C° 0.8 mm 1 mps 582 mmHg 83%
    21:00 +14°C° 0.3 mm 1 mps 582 mmHg 84%
    22:00 +14°C° 0.3 mm 1 mps 582 mmHg 84%
    23:00 +14°C° 0.3 mm 1 mps 582 mmHg 85%

    25 February, Sunday

    Time Temperature Precipitation Wind Pressure Humidity
    00:00 +14°C° 0.2 mm 1 mps 582 mmHg 86%
    01:00 +13°C° 0.2 mm 1 mps 581 mmHg 87%
    02:00 +12°C° 0.2 mm 0 mps 581 mmHg 88%
    03:00 +13°C° 0.4 mm 1 mps 581 mmHg 88%
    04:00 +13°C° 0.4 mm 1 mps 581 mmHg 89%
    05:00 +13°C° 0.4 mm 1 mps 582 mmHg 89%
    06:00 +13°C° 0.9 mm 1 mps 582 mmHg 88%
    07:00 +14°C° 0.9 mm 1 mps 583 mmHg 87%
    08:00 +14°C° 0.9 mm 1 mps 583 mmHg 86%
    09:00 +15°C° 0.6 mm 1 mps 584 mmHg 80%
    10:00 +16°C° 0.6 mm 2 mps 584 mmHg 74%
    11:00 +17°C° 0.6 mm 2 mps 585 mmHg 68%
    12:00 +17°C° 0.5 mm 2 mps 585 mmHg 68%
    13:00 +17°C° 0.5 mm 3 mps 585 mmHg 67%
    14:00 +16°C° 0.5 mm 3 mps 585 mmHg 67%
    15:00 +14°C° 0.2 mm 3 mps 584 mmHg 72%
    16:00 +13°C° 0.2 mm 3 mps 584 mmHg 77%
    17:00 +12°C° 0.2 mm 3 mps 584 mmHg 81%
    18:00 +11°C° 0.1 mm 3 mps 584 mmHg 85%
    19:00 +10°C° 0.1 mm 3 mps 584 mmHg 88%
    20:00 +9°C° 0.1 mm 3 mps 584 mmHg 91%
    21:00 +8°C° 0.1 mm 2 mps 584 mmHg 92%
    22:00 +8°C° 0.1 mm 2 mps 584 mmHg 92%
    23:00 +8°C° 0.1 mm 2 mps 584 mmHg 92%

    26 February, Monday

    Time Temperature Precipitation Wind Pressure Humidity
    00:00 +8°C° 0 mm 2 mps 584 mmHg 92%
    01:00 +7°C° 0 mm 2 mps 584 mmHg 93%
    02:00 +8°C° 0 mm 1 mps 584 mmHg 93%
    03:00 +8°C° 0 mm 1 mps 584 mmHg 94%
    04:00 +8°C° 0 mm 1 mps 584 mmHg 94%
    05:00 +7°C° 0 mm 1 mps 584 mmHg 95%
    06:00 +8°C° 0 mm 1 mps 585 mmHg 90%
    07:00 +9°C° 0 mm 1 mps 586 mmHg 85%
    08:00 +10°C° 0 mm 1 mps 587 mmHg 81%
    09:00 +12°C° 0 mm 1 mps 587 mmHg 72%
    10:00 +14°C° 0 mm 1 mps 588 mmHg 64%
    11:00 +16°C° 0 mm 1 mps 588 mmHg 55%
    12:00 +17°C° 0 mm 2 mps 588 mmHg 53%
    13:00 +17°C° 0 mm 2 mps 588 mmHg 51%
    14:00 +18°C° 0 mm 3 mps 588 mmHg 49%
    15:00 +17°C° 0 mm 3 mps 588 mmHg 53%
    16:00 +16°C° 0 mm 2 mps 587 mmHg 56%
    17:00 +16°C° 0 mm 2 mps 587 mmHg 60%
    18:00 +14°C° 0 mm 2 mps 587 mmHg 68%
    19:00 +12°C° 0 mm 2 mps 586 mmHg 76%
    20:00 +11°C° 0 mm 1 mps 586 mmHg 85%
    21:00 +10°C° 0 mm 1 mps 586 mmHg 86%
    22:00 +10°C° 0 mm 1 mps 586 mmHg 88%
    23:00 +9°C° 0 mm 1 mps 586 mmHg 90%
    Show more